Regional Weather Roundup
Issued by NWS

Home | Current Version | Previous Version | Text Only | Print | Product List | Glossary Off
Versions: 1 2 3 4 5 6 7 8 9 10 11 12 13 14 15 16 17 18 19 20 21 22 23 24 25 26 27 28 29 30 31 32 33 34 35 36 37 38 39 40 41 42 43 44 45 46 47 48 49 50

000
ASUS43 KDMX 280307
RWRIA

WEATHER ROUNDUP FOR IOWA
NATIONAL WEATHER SERVICE DES MOINES IA
1000 PM CDT MON JUL 27 2015

NOTE: "FAIR" INDICATES FEW OR NO CLOUDS BELOW 12,000 FEET WITH NO
SIGNIFICANT WEATHER AND/OR OBSTRUCTIONS TO VISIBILITY.

* - THESE STATIONS ARE NOT NWS STATIONS...THUS NOT UNDER NWS
QUALITY CONTROL.  THEY ALSO DO NOT REPORT WEATHER SUCH
AS PRECIPITATION OR FOG.

IAZ001>003-012>014-020>022-031>034-043>046-280400-
   NORTHWEST IOWA

CITY           SKY/WX    TMP DP  RH WIND       PRES   REMARKS
CARROLL *      CLOUDY    72  70  94 SE9       29.89S
CHEROKEE *     PTCLDY    73  70  88 S12       29.86S
DENISON *      MOCLDY    73  70  88 SE14G23   29.85R
LE MARS *      CLEAR     75  70  83 SE12G18   29.83R
ORANGE CITY *  CLEAR     73  70  88 SE9       29.84S
SHELDON *      PTCLDY    73  70  88 SE13G22   29.84R
SIOUX CITY     CLEAR     77  69  76 SE16      29.82R
SPENCER        PTCLDY    75  68  78 SE9       29.88R
STORM LAKE *   CLEAR     72  68  88 SE10G20   29.89R
$$

IAZ055>058-069>071-079>083-090>094-280400-
   SOUTHWEST IOWA

CITY           SKY/WX    TMP DP  RH WIND       PRES   REMARKS
ATLANTIC *     CLOUDY    75  72  88 SE9       29.89R
AUDUBON *      PTCLDY    73  68  83 SE8       29.90S
CLARINDA *     PTCLDY    77  72  83 SE8G15    29.90R
COUNCIL BLFS * PTCLDY    75  72  88 SE16      29.86S
CRESTON *      CLEAR     73  72  94 SE10      29.92R
HARLAN  *      CLEAR     75  75 100 SE9       29.92R
LAMONI         CLEAR     76  70  82 VRB7      29.93R
RED OAK *      CLEAR     77  72  83 SE9       29.88R
SHENANDOAH *   CLEAR     77  72  83 SE15G22   29.87R
$$

IAZ047>049-059>061-072>074-084-280400-
   CENTRAL IOWA

CITY           SKY/WX    TMP DP  RH WIND       PRES   REMARKS
AMES           CLEAR     70  68  93 SE6       29.92R
ANKENY *       PTCLDY    72  70  94 SE3       29.92R
CHARITON *     CLOUDY    73  72  94 SE9       29.93R
DES MOINES     PTCLDY    74  68  81 S8        29.91R
GRINNELL*      CLEAR     72  68  88 SE5       29.95R
KNOXVILLE *    CLEAR     73  68  83 SE9       29.92R
MARSHALLTOWN     N/A     72  70  93 SE8       29.93R
PELLA *        CLEAR     72  72 100 SE6       29.94R
PERRY *          N/A     72  70  94 SE7       29.91R
$$

IAZ004>006-015-016-023>025-035-036-280400-
   NORTH CENTRAL IOWA

CITY           SKY/WX    TMP DP  RH WIND       PRES   REMARKS
ALGONA *       CLEAR     72  68  88 SE9       29.91S
CLARION *      CLEAR     70  68  94 SE9       29.92R
ESTHERVILLE    CLEAR     71  68  90 SE12      29.89R
FORT DODGE *   CLEAR     70  66  88 SE6       29.92R
MASON CITY     CLEAR     71  70  96 SE8       29.96R
FOREST CITY *  CLEAR     72  68  88 SE7       29.94R
IOWA FALLS *     N/A     70  68  94 E5        29.95R
$$

IAZ007>011-017>019-026>030-037>042-050>054-066-280400-
   NORTHEAST IOWA

CITY           SKY/WX    TMP DP  RH WIND       PRES   REMARKS
CEDAR RAPIDS   MOCLDY    75  74  96 SE5       29.95R
CHARLES CITY * CLEAR     73  73 100 SE6       29.96R
CLINTON *      CLOUDY    75  70  83 SE7       30.00R
DECORAH *      CLEAR     73  72  94 SE5       29.96S
DUBUQUE        MOCLDY    75  71  87 SE6       29.99R
MONTICELLO *   CLEAR     75  72  88 E5        29.97R
OELWEIN *      CLEAR     75  72  88 SE6       29.97R
WATERLOO       CLEAR     75  72  90 E5        29.94R
$$

IAZ064-065-067-068-078-280400-
   EAST CENTRAL IOWA

CITY           SKY/WX    TMP DP  RH WIND       PRES   REMARKS
DAVENPORT      CLOUDY    76  72  87 E5        29.97R
IOWA CITY      MOCLDY    76  73  91 CALM      29.96R
MT. PLEASANT * CLOUDY    77  73  88 E3        29.94S
MUSCATINE *    CLEAR     79  73  83 SE5       29.94R HX  82
QUAD CITIES    CLOUDY    77  73  87 E5        29.96R
$$

IAZ062-063-075>077-085>089-095>099-280400-
   SOUTHEAST IOWA

CITY           SKY/WX    TMP DP  RH WIND       PRES   REMARKS
BURLINGTON     CLOUDY    77  75  93 SE5       29.94R
FAIRFIELD *    PTCLDY    75  72  88 SE7       29.94S
FORT MADISON * CLEAR     75  75 100 SE3       29.95S
KEOKUK *       CLEAR     77  75  94 SE7       29.93R
OSKALOOSA *      N/A     72  70  94 SE3       29.94R
CENTERVILLE *  CLEAR     73  72  94 SE7       29.96R
OTTUMWA        PTCLDY    73  71  93 SE9       29.92R
WASHINGTON *   CLEAR     75  75 100 SE3       29.96R
$$

ABBREVIATIONS USED IN REMARKS
   TC - TEMPERATURES IN CELSIUS
  WCI - WIND CHILL INDEX
   HX - HEAT INDEX
  VSB - VISIBILITY
$$




USA.gov is the U.S. government's official web portal to all federal, state and local government web resources and services.